Home   Weather   Bryne   Past weeks

Flag for Norway Past Weather in Bryne, Norway — Yesterday and Last 2 Weeks

Now
38 °F

Chilly.


Feels Like: 29 °F
Forecast: 32 / 44 °F
Wind: 18 mph from Northwest

Location: Obrestad

Current Time: Apr 24, 2017 at 11:35:37 pm

Latest Report: Apr 24, 2017 at 8:00 pm


Visibility: N/A

Pressure: 29.63 "Hg

Humidity: 77%

Dew Point: 32 °F

Location of BryneLocation

Past Weather in Bryne — Graph

°F

Bryne Temperature Yesterday

Maximum temperature yesterday: 42 °F (at 1:00 pm)
Minimum temperature yesterday: 34 °F (at 7:00 am)
Average temperature yesterday: 38 °F

High & Low Weather Summary for the Past Weeks

 TemperatureHumidityPressure
High46 °F (Apr 12, 1:00 pm)100% (Apr 12, 4:00 am)30.61 "Hg (Apr 12, 4:00 am)
Low31 °F (Apr 17, 6:00 am)51% (Apr 18, 12:00 pm)29.50 "Hg (Apr 12, 5:00 pm)
Average41 °F84%29.96 "Hg
* Reported Apr 9 8:00 pm — Apr 24 8:00 pm, Bryne, Weather by CustomWeather, © 2017

Note: Actual official high and low records may vary slightly from our data, if they occured in-between our weather recording intervals... More about our weather records

Advertising

Bryne Weather History for the Previous 24 Hours

Scroll right to see more
 ConditionsComfort  
Time TempWeatherWind HumidityBarometerVisibility
8:00 pm
Mon, Apr 24
38 °FChilly.18 mph77%29.63 "HgN/A
7:00 pm39 °FChilly.16 mph65%29.64 "HgN/A
6:00 pm38 °FChilly.18 mph71%29.64 "HgN/A
5:00 pm39 °FChilly.18 mph66%29.64 "HgN/A
4:00 pm38 °FChilly.17 mph76%29.64 "HgN/A
3:00 pm39 °FChilly.20 mph64%29.63 "HgN/A
2:00 pm39 °FChilly.22 mph62%29.63 "HgN/A
1:00 pm39 °FChilly.22 mph66%29.62 "HgN/A
12:00 pm40 °FChilly.22 mph63%29.60 "HgN/A
11:00 am39 °FChilly.23 mph62%29.59 "HgN/A
10:00 am39 °FChilly.24 mph67%29.57 "HgN/A
9:00 am38 °FChilly.25 mph68%29.56 "HgN/A
8:00 am39 °FChilly.22 mph75%29.54 "HgN/A
7:00 am39 °FChilly.20 mph80%29.53 "HgN/A
6:00 am39 °FChilly.16 mph92%29.54 "HgN/A
5:00 am38 °FChilly.15 mph92%29.53 "HgN/A
4:00 am44 °FQuite cool.16 mph93%29.50 "HgN/A
3:00 am43 °FQuite cool.16 mph97%29.56 "HgN/A
2:00 am43 °FQuite cool.17 mph97%29.63 "HgN/A
1:00 am42 °FQuite cool.15 mph96%29.70 "HgN/A
12:00 am42 °FQuite cool.16 mph94%29.75 "HgN/A
11:00 pm
Sun, Apr 23
41 °FQuite cool.12 mph95%29.81 "HgN/A
Weather by CustomWeather, © 2017

See weather overviewHow to use our weather pages